• In Hungary
  • List of Countries
  • For 7 days
  • Water Temperature
  • Satellite Maps
  • Weather Map
  • News
  • Weather Widgets
  • user-avatar
    Login

    Hourly Weather Nottingham

    Today, 26 February, Monday

    Time Temperature Precipitation Wind Pressure Humidity
    00:00 -3°C° 0 mm 4 mps 768 mmHg 68%
    01:00 -2°C° 0 mm 3 mps 769 mmHg 71%
    02:00 -2°C° 0 mm 3 mps 769 mmHg 73%
    03:00 -2°C° 0 mm 3 mps 769 mmHg 76%
    04:00 -2°C° 0 mm 3 mps 769 mmHg 75%
    05:00 -4°C° 0 mm 3 mps 769 mmHg 75%
    06:00 -4°C° 0 mm 4 mps 769 mmHg 75%
    07:00 -3°C° 0 mm 4 mps 769 mmHg 69%
    08:00 -2°C° 0 mm 5 mps 769 mmHg 64%
    09:00 -3°C° 0 mm 6 mps 769 mmHg 58%
    10:00 -2°C° 0 mm 6 mps 769 mmHg 56%
    11:00 -2°C° 0 mm 6 mps 769 mmHg 54%
    12:00 -1°C° 0 mm 6 mps 769 mmHg 51%
    13:00 -1°C° 0 mm 6 mps 769 mmHg 51%
    14:00 -1°C° 0 mm 6 mps 769 mmHg 52%
    15:00 -1°C° 0 mm 6 mps 768 mmHg 52%
    16:00 -2°C° 0 mm 6 mps 768 mmHg 56%
    17:00 -2°C° 0 mm 5 mps 768 mmHg 61%
    18:00 -3°C° 0 mm 4 mps 768 mmHg 66%
    19:00 -3°C° 0 mm 4 mps 768 mmHg 68%
    20:00 -3°C° 0 mm 4 mps 768 mmHg 70%
    21:00 -4°C° 0 mm 4 mps 769 mmHg 72%
    22:00 -4°C° 0 mm 4 mps 768 mmHg 72%
    23:00 -4°C° 0 mm 4 mps 768 mmHg 73%

    Tomorrow, 27 February, Tuesday

    Time Temperature Precipitation Wind Pressure Humidity
    00:00 -4°C° 0 mm 3 mps 768 mmHg 73%
    01:00 -4°C° 0 mm 3 mps 768 mmHg 75%
    02:00 -4°C° 0 mm 3 mps 767 mmHg 77%
    03:00 -4°C° 0 mm 3 mps 766 mmHg 78%
    04:00 -4°C° 0.3 mm 3 mps 766 mmHg 81%
    05:00 -4°C° 0.3 mm 3 mps 765 mmHg 84%
    06:00 -4°C° 0.3 mm 3 mps 765 mmHg 87%
    07:00 -2°C° 0.5 mm 3 mps 764 mmHg 87%
    08:00 -2°C° 0.5 mm 3 mps 764 mmHg 88%
    09:00 -2°C° 0.5 mm 3 mps 764 mmHg 88%
    10:00 -1°C° 0.2 mm 3 mps 764 mmHg 84%
    11:00 -2°C° 0.2 mm 4 mps 763 mmHg 80%
    12:00 -2°C° 0.2 mm 4 mps 763 mmHg 76%
    13:00 -2°C° 0.2 mm 5 mps 763 mmHg 73%
    14:00 -2°C° 0.2 mm 5 mps 763 mmHg 70%
    15:00 -2°C° 0.2 mm 5 mps 762 mmHg 67%
    16:00 -2°C° 0.1 mm 5 mps 762 mmHg 72%
    17:00 -3°C° 0.1 mm 4 mps 762 mmHg 77%
    18:00 -4°C° 0.1 mm 4 mps 762 mmHg 82%
    19:00 -5°C° 0.1 mm 4 mps 762 mmHg 83%
    20:00 -5°C° 0.1 mm 4 mps 762 mmHg 84%
    21:00 -5°C° 0.1 mm 4 mps 762 mmHg 85%
    22:00 -5°C° 0.1 mm 4 mps 762 mmHg 84%
    23:00 -5°C° 0.1 mm 4 mps 761 mmHg 84%

    Day after tomorrow, 28 February, Wednesday

    Time Temperature Precipitation Wind Pressure Humidity
    00:00 -5°C° 0.1 mm 4 mps 761 mmHg 83%
    01:00 -7°C° 0.1 mm 5 mps 761 mmHg 84%
    02:00 -7°C° 0.1 mm 5 mps 760 mmHg 85%
    03:00 -7°C° 0.1 mm 5 mps 760 mmHg 85%
    04:00 -7°C° 0.1 mm 5 mps 760 mmHg 85%
    05:00 -7°C° 0.1 mm 5 mps 759 mmHg 85%
    06:00 -7°C° 0.1 mm 5 mps 759 mmHg 84%
    07:00 -7°C° 0.1 mm 5 mps 759 mmHg 85%
    08:00 -6°C° 0.1 mm 5 mps 759 mmHg 85%
    09:00 -6°C° 0.1 mm 5 mps 759 mmHg 85%
    10:00 -5°C° 0.1 mm 5 mps 759 mmHg 80%
    11:00 -5°C° 0.1 mm 5 mps 759 mmHg 75%
    12:00 -4°C° 0.1 mm 5 mps 759 mmHg 69%
    13:00 -4°C° 0.2 mm 6 mps 759 mmHg 70%
    14:00 -4°C° 0.2 mm 6 mps 759 mmHg 70%
    15:00 -5°C° 0.2 mm 6 mps 759 mmHg 71%
    16:00 -6°C° 0.1 mm 6 mps 759 mmHg 73%
    17:00 -8°C° 0.1 mm 6 mps 759 mmHg 75%
    18:00 -9°C° 0.1 mm 6 mps 759 mmHg 77%
    19:00 -9°C° 0 mm 6 mps 759 mmHg 79%
    20:00 -9°C° 0 mm 6 mps 759 mmHg 81%
    21:00 -8°C° 0 mm 5 mps 759 mmHg 82%
    22:00 -9°C° 0 mm 6 mps 758 mmHg 83%
    23:00 -9°C° 0 mm 6 mps 758 mmHg 83%

    1 March, Thursday

    Time Temperature Precipitation Wind Pressure Humidity
    00:00 -9°C° 0 mm 6 mps 757 mmHg 84%
    01:00 -9°C° 0 mm 6 mps 757 mmHg 84%
    02:00 -9°C° 0 mm 7 mps 756 mmHg 84%
    03:00 -9°C° 0 mm 7 mps 755 mmHg 83%
    04:00 -9°C° 0 mm 7 mps 755 mmHg 83%
    05:00 -10°C° 0 mm 8 mps 754 mmHg 83%
    06:00 -10°C° 0 mm 8 mps 754 mmHg 82%
    07:00 -9°C° 0 mm 9 mps 753 mmHg 81%
    08:00 -9°C° 0 mm 9 mps 753 mmHg 79%
    09:00 -8°C° 0 mm 10 mps 753 mmHg 78%
    10:00 -8°C° 0 mm 10 mps 752 mmHg 76%
    11:00 -7°C° 0 mm 10 mps 752 mmHg 75%
    12:00 -7°C° 0 mm 11 mps 751 mmHg 73%
    13:00 -7°C° 0 mm 11 mps 751 mmHg 73%
    14:00 -7°C° 0 mm 10 mps 750 mmHg 74%
    15:00 -7°C° 0 mm 10 mps 750 mmHg 74%
    16:00 -7°C° 0 mm 10 mps 750 mmHg 75%
    17:00 -7°C° 0 mm 10 mps 749 mmHg 77%
    18:00 -8°C° 0 mm 10 mps 749 mmHg 78%
    19:00 -8°C° 0 mm 10 mps 748 mmHg 78%
    20:00 -8°C° 0 mm 10 mps 748 mmHg 78%
    21:00 -8°C° 0 mm 10 mps 747 mmHg 78%
    22:00 -8°C° 0 mm 10 mps 747 mmHg 79%
    23:00 -8°C° 0 mm 10 mps 746 mmHg 79%

    2 March, Friday

    Time Temperature Precipitation Wind Pressure Humidity
    00:00 -8°C° 0 mm 10 mps 746 mmHg 80%
    01:00 -8°C° 0.1 mm 10 mps 745 mmHg 81%
    02:00 -7°C° 0.1 mm 11 mps 744 mmHg 82%
    03:00 -7°C° 0.1 mm 11 mps 743 mmHg 83%
    04:00 -7°C° 1.1 mm 11 mps 742 mmHg 86%
    05:00 -7°C° 1.1 mm 11 mps 742 mmHg 89%
    06:00 -8°C° 1.1 mm 10 mps 741 mmHg 93%
    07:00 -7°C° 1.2 mm 10 mps 741 mmHg 93%
    08:00 -6°C° 1.2 mm 9 mps 740 mmHg 93%
    09:00 -6°C° 1.2 mm 8 mps 740 mmHg 92%
    10:00 -5°C° 0.2 mm 8 mps 740 mmHg 93%
    11:00 -3°C° 0.2 mm 7 mps 740 mmHg 94%
    12:00 -3°C° 0.2 mm 7 mps 739 mmHg 95%
    13:00 -3°C° 0.1 mm 6 mps 739 mmHg 96%
    14:00 -2°C° 0.1 mm 6 mps 738 mmHg 97%
    15:00 -2°C° 0.1 mm 6 mps 737 mmHg 98%
    16:00 -2°C° 0.6 mm 6 mps 737 mmHg 98%
    17:00 -2°C° 0.6 mm 6 mps 736 mmHg 98%
    18:00 -2°C° 0.6 mm 7 mps 735 mmHg 97%
    19:00 -2°C° 1.4 mm 7 mps 735 mmHg 97%
    20:00 -2°C° 1.4 mm 7 mps 735 mmHg 97%
    21:00 -2°C° 1.4 mm 7 mps 734 mmHg 97%
    22:00 -2°C° 1.1 mm 6 mps 734 mmHg 98%
    23:00 -1°C° 1.1 mm 4 mps 733 mmHg 98%

    3 March, Saturday

    Time Temperature Precipitation Wind Pressure Humidity
    00:00 0°C° 1.1 mm 3 mps 733 mmHg 99%
    01:00 0°C° 0.1 mm 3 mps 732 mmHg 98%
    02:00 0°C° 0.1 mm 3 mps 732 mmHg 97%
    03:00 0°C° 0.1 mm 3 mps 732 mmHg 97%
    04:00 0°C° 0 mm 3 mps 732 mmHg 96%
    05:00 -1°C° 0 mm 4 mps 732 mmHg 95%
    06:00 0°C° 0 mm 4 mps 732 mmHg 95%
    07:00 0°C° 0.1 mm 5 mps 732 mmHg 96%
    08:00 0°C° 0.1 mm 5 mps 732 mmHg 97%
    09:00 0°C° 0.1 mm 5 mps 732 mmHg 98%
    10:00 0°C° 0.1 mm 5 mps 732 mmHg 98%
    11:00 +1°C° 0.1 mm 5 mps 731 mmHg 98%
    12:00 +1°C° 0.1 mm 5 mps 731 mmHg 98%
    13:00 +1°C° 0.9 mm 5 mps 730 mmHg 98%
    14:00 +1°C° 0.9 mm 6 mps 729 mmHg 98%
    15:00 +1°C° 0.9 mm 6 mps 728 mmHg 98%
    16:00 +1°C° 0.6 mm 6 mps 728 mmHg 97%
    17:00 +1°C° 0.6 mm 5 mps 727 mmHg 97%
    18:00 +1°C° 0.6 mm 5 mps 727 mmHg 96%
    19:00 +1°C° 0 mm 5 mps 728 mmHg 95%
    20:00 +1°C° 0 mm 6 mps 728 mmHg 95%
    21:00 +1°C° 0 mm 6 mps 728 mmHg 94%
    22:00 +1°C° 0 mm 6 mps 729 mmHg 94%
    23:00 -1°C° 0 mm 6 mps 729 mmHg 93%
    Show more